Other Surface Observations
Issued by NWS

Home | Current Version | Previous Version | Text Only | Print | Product List | Glossary On
Versions: 1 2 3 4 5 6 7 8 9 10 11 12 13 14 15 16 17 18 19 20 21 22 23 24 25 26 27 28 29 30 31 32 33 34 35 36 37 38 39 40 41 42 43 44 45 46 47 48 49 50
305
SXUS52 KTAE 261718
OSOTAE
OSOTAE
North Florida/South Alabama/Southwest Georgia Weather Roundup
National Weather Service Tallahassee Florida
100 PM EDT THU MAY 26 2016

Note: "fair" indicates few or no clouds below 12,000 feet with no
significant weather and/or obstructions to visibility.

!FLZ017-115-028-034-025-261800
...North Florida...

CITY           SKY/WX    TMP DP  RH WIND       PRES   REMARKS
TALLAHASSEE    MOSUNNY   87  63  44 E7        30.15F
APALACHICOLA   MOSUNNY   82  70  66 SE9       30.16F
PERRY          MOSUNNY   86  60  41 SE7       30.17F
CROSS CITY       N/A     88  59  37 E8        30.15F
JACKSONVILLE   MOSUNNY   84  56  38 E10       30.17F
$$

!FLZ112-006-005-002-011-261800
...Florida Panhandle...

CITY           SKY/WX    TMP DP  RH WIND       PRES   REMARKS
MARIANNA       SUNNY     86  64  47 SE8       30.14F
BONIFAY        NOT AVBL
PANAMA CITY NW FAIR      85  68  56 S13       30.14F
TYNDALL AFB    MOSUNNY   83  69  62 S13       30.15F
TYND DRONE APT FAIR      84  68  58 S10       30.15F
DE FUNIAK SPR  FAIR      84  66  54 S9        30.15F
EGLIN AFB      PTSUNNY   83  69  63 SE12      30.14F
DESTIN         SUNNY     84  74  71 SE10      30.15F HX  91
HURLBURT       MOSUNNY   83  70  64 S10       30.13F
CRESTVIEW      PTSUNNY   85  66  53 VRB6      30.16F
PENSACOLA      MOSUNNY   84  71  65 SE15      30.14F
$$

!ALZ063-066-261800
...South Alabama...

CITY           SKY/WX    TMP DP  RH WIND       PRES   REMARKS
DOTHAN         CLOUDY    86  64  47 VRB6      30.18F
OZARK CAIRNS   CLOUDY    83  66  56 S8        30.16S
FT RUCKER HELI CLOUDY    83  65  54 SW8       30.15
RUCKER HELI 3  FAIR      82  65  57 S8        30.17F
RUCKER HELI 2  NOT AVBL
FLORALA APT    MOSUNNY   82  63  52 S12       30.16F
ANDALUSIA      CLOUDY    86  66  51 S6        30.15F
TROY           MOSUNNY   84  67  56 S7G18     30.17F
EUFALA         FAIR      88  64  44 SE8       30.15F
MOBILE         PTSUNNY   85  69  58 SE13      30.13F
$$

!GAZ120>161-261800
...Southwest and South Central Georgia...

CITY           SKY/WX    TMP DP  RH WIND       PRES   REMARKS
THOMASVILLE    FAIR      84  59  42 S6        30.18F
BAINBRIDGE     MOSUNNY   84  64  51 E3        30.15F
MOODY AFB      MOSUNNY   85  58  39 SE8       30.16F
VALDOSTA       MOSUNNY   85  60  42 VRB3      30.17F
MOULTRIE       SUNNY     86  59  39 SE6       30.18F
BLAKELY        SUNNY     88  66  48 SE8       30.17F HX  90
ALBANY         SUNNY     86  61  42 SW3       30.18F
TIFTON         FAIR      84  58  40 CALM      30.17F
FITZGERALD     FAIR      85  59  41 CALM      30.20F
CORDELE        FAIR      87  62  43 CALM      30.19F
AMERICUS       FAIR      82  57  42 CALM      30.19F
HOMERVILLE     FAIR      86  61  42 E7        30.18F
$$

!GMZ750-755-770-775-261800
...Coastal and Buoy Obs...

STATION/POSITION TIME  TEMP    WIND        PRES    VSBY  WAVE
                       AIR SEA DIR/SP/G                  HT/PER
                 (UTC) (F)     (DEG/KT/KT) (MB)    (MI)  (FT/S)
KEATON BEACH     1700   78     220/  8/  9 1021.1F
CEDAR KEY        1700   79     240/  3/  5 1021.3F
C TOWER          1700   77     130/  8/  8 1021.7F
APALACHICOLA BUO 1650   77 78  110/ 10/ 12 1020.6F         3/ 6
PANAMA CITY BUOY 1650   80 81  140/ 10/ 12 1020.8F         2/ 4
MOBILE BUOY      1700   78 79  130/ 10/ 12 1020.0S
ORANGE BCH AL BU 1650   78 80  120/ 12/ 16 1019.8F         2/ 5
$$




USA.gov is the U.S. government's official web portal to all federal, state and local government web resources and services.